"Pseudo-MPEC" for ZTF0D8p

Created 2020 Mar 2 20:07:08 UT using Find_Orb

Click here for an explanation of pseudo-MPECs

 
 Astrometry: 
     ZTF0D8p  C2020 02 14.21634008 49 09.52 +42 13 24.5    ~2H27 20.66gUNEOCPI41
     ZTF0D8p  C2020 02 14.22897008 49 09.39 +42 13 24.7    ~2H27 20.68gUNEOCPI41
     ZTF0D8p  C2020 02 16.22324008 49 09.22 +42 13 25.2    ~2H27 20.60gUNEOCPI41
     ZTF0D8p  C2020 02 16.28613008 49 08.82 +42 13 23.9    ~2H27 20.50rUNEOCPI41

Station data:
(I41) Palomar Mountain--ZTF  (N33.357340 W116.859780)  US/California. 1.2-m
   f/2.44 Oschin Schmidt + CCD.

Orbital elements:  ZTF0D8p
   Perihelion 2020 Feb 17.006402 +/- 49.6 TT =  0:09:13 (JD 2458896.506402)
Epoch 2020 Feb 16.0 TT = JDT 2458895.5   Earth MOID: 0.4787   Ma: 0.0580
M 359.71390036 +/- 12               (J2000 ecliptic)          AutoNEOCP
n   0.28427966 +/- 0.177            Peri.   72.02313 +/- 70
a   2.29072096 +/- 0.949            Node    67.89493 +/- 26
e   0.3734153 +/- 0.215             Incl.    8.45631 +/- 3.9
P   3.47                   H 20.2   G  0.15   U 11.6  SR
q 1.43533064 +/- 0.302    Q 3.14611127 +/- 20.9
From 4 observations 2020 Feb. 14-16; mean residual 0".20
Residuals in arcseconds: 
200214 I41  .05+  .32+    200216 I41  .08+  .21-    
200214 I41  .05-  .32-    200216 I41  .08-  .20+    

Ephemerides (geocentric):
Date (UTC) HH   RA              Dec         delta   r     elong  mag " sig PA
---- -- -- --  -------------   -----------  ------ ------ -----  --- ---- ---
2020 03 02 20  08 54 31.021   +40 49 54.77  .54931 1.4412 136.7 20.9 1339  55
2020 03 02 21  08 54 32.730   +40 49 30.75  .54948 1.4412 136.7 20.9 1347  55
2020 03 02 22  08 54 34.443   +40 49 06.68  .54964 1.4413 136.7 20.9 1354  55
2020 03 02 23  08 54 36.161   +40 48 42.56  .54980 1.4413 136.6 20.9 1362  55
2020 03 03 00  08 54 37.883   +40 48 18.39  .54996 1.4413 136.6 20.9 1370  55
2020 03 03 01  08 54 39.610   +40 47 54.18  .55012 1.4414 136.6 20.9 1378  55
2020 03 03 02  08 54 41.341   +40 47 29.91  .55028 1.4414 136.6 20.9 1386  55
2020 03 03 03  08 54 43.077   +40 47 05.59  .55044 1.4414 136.5 20.9 1394  55
2020 03 03 04  08 54 44.818   +40 46 41.23  .55061 1.4415 136.5 20.9 1402  55
2020 03 03 05  08 54 46.563   +40 46 16.81  .55077 1.4415 136.5 20.9 1410  55
2020 03 03 06  08 54 48.312   +40 45 52.35  .55093 1.4415 136.4 20.9 1418  55
2020 03 03 07  08 54 50.066   +40 45 27.83  .55109 1.4416 136.4 20.9 1426  55
2020 03 03 08  08 54 51.825   +40 45 03.27  .55126 1.4416 136.4 20.9 1434  55
2020 03 03 09  08 54 53.588   +40 44 38.66  .55142 1.4416 136.4 20.9 1442  55
2020 03 03 10  08 54 55.356   +40 44 14.00  .55158 1.4417 136.3 20.9 1451  55
2020 03 03 11  08 54 57.128   +40 43 49.28  .55174 1.4417 136.3 20.9 1459  55
2020 03 03 12  08 54 58.905   +40 43 24.53  .55191 1.4417 136.3 20.9 1467  55
2020 03 03 13  08 55 00.686   +40 42 59.72  .55207 1.4418 136.3 20.9 1475  55
2020 03 03 14  08 55 02.472   +40 42 34.86  .55224 1.4418 136.2 20.9 1484  55
2020 03 03 15  08 55 04.262   +40 42 09.96  .55240 1.4418 136.2 20.9 1492  55
2020 03 03 16  08 55 06.057   +40 41 45.00  .55256 1.4419 136.2 20.9 1500  55
2020 03 03 17  08 55 07.856   +40 41 20.00  .55273 1.4419 136.2 20.9 1509  55
2020 03 03 18  08 55 09.660   +40 40 54.95  .55289 1.4419 136.1 20.9 1517  55
2020 03 03 19  08 55 11.469   +40 40 29.85  .55306 1.4420 136.1 20.9 1525  55
2020 03 03 20  08 55 13.281   +40 40 04.70  .55322 1.4420 136.1 20.9 1534  55
2020 03 03 21  08 55 15.099   +40 39 39.50  .55339 1.4421 136.1 20.9 1542  55
2020 03 03 22  08 55 16.921   +40 39 14.26  .55355 1.4421 136.0 20.9 1551  55
2020 03 03 23  08 55 18.747   +40 38 48.96  .55372 1.4421 136.0 20.9 1559  55
2020 03 04 00  08 55 20.578   +40 38 23.62  .55388 1.4422 136.0 20.9 1568  55
2020 03 04 01  08 55 22.413   +40 37 58.23  .55405 1.4422 136.0 20.9 1577  55
2020 03 04 02  08 55 24.253   +40 37 32.80  .55421 1.4422 135.9 21.0 1585  54
2020 03 04 03  08 55 26.097   +40 37 07.31  .55438 1.4423 135.9 21.0 1594  54
2020 03 04 04  08 55 27.946   +40 36 41.78  .55454 1.4423 135.9 21.0 1603  54
2020 03 04 05  08 55 29.800   +40 36 16.19  .55471 1.4423 135.8 21.0 1611  54
2020 03 04 06  08 55 31.657   +40 35 50.56  .55488 1.4424 135.8 21.0 1620  54
2020 03 04 07  08 55 33.520   +40 35 24.89  .55504 1.4424 135.8 21.0 1629  54
2020 03 04 08  08 55 35.386   +40 34 59.16  .55521 1.4424 135.8 21.0 1638  54
2020 03 04 09  08 55 37.258   +40 34 33.39  .55538 1.4425 135.7 21.0 1647  54
2020 03 04 10  08 55 39.133   +40 34 07.57  .55554 1.4425 135.7 21.0 1655  54
2020 03 04 11  08 55 41.014   +40 33 41.70  .55571 1.4426 135.7 21.0 1664  54
2020 03 04 12  08 55 42.898   +40 33 15.78  .55588 1.4426 135.7 21.0 1673  54
2020 03 04 13  08 55 44.787   +40 32 49.82  .55605 1.4426 135.6 21.0 1682  54
2020 03 04 14  08 55 46.681   +40 32 23.81  .55621 1.4427 135.6 21.0 1691  54
2020 03 04 15  08 55 48.579   +40 31 57.75  .55638 1.4427 135.6 21.0 1700  54
2020 03 04 16  08 55 50.481   +40 31 31.65  .55655 1.4427 135.6 21.0 1709  54
2020 03 04 17  08 55 52.388   +40 31 05.50  .55672 1.4428 135.5 21.0 1719  54
2020 03 04 18  08 55 54.300   +40 30 39.30  .55689 1.4428 135.5 21.0 1728  54
2020 03 04 19  08 55 56.216   +40 30 13.05  .55706 1.4428 135.5 21.0 1737  54